STARLINK-38039, 69719

Orbit data source: Space-Track

STARLINK-38039, 69719 is a payload satellite owned by SpaceX/Seattle (US) in SSO that was launched on Sun, 28 Jun 2026 UTC via an FALCON 9 launch vehicle from the Air Force Western Test Range (AFWTR). Payload-class satellites include a variety of spacecraft equipped with specific instruments for various scientific and technological missions. These include communications satellites like Starlink; space stations such as the ISS; scientific satellites like the Hubble; Earth observation satellites from companies like Planet Labs, Umbra, and HawkEye 360; GPS; miniature CubeSats for education and research; and military/defense satellites.

Loading next visibility...
Identifier
69719, 2026-147R
Orbit
SSO
Country
Flag of USUS
Related business
Manufacturer
SpaceX/Seattle
Mission
Operational Commercial Communications
Bus & Motor
STARLINK V2MO, Unknown motor
Mass
575 kg wet, ~530 kg dry
Launch date (UTC)
2026-06-28 (2 months ago)
Launch vehicle
FALCON 9
Launch site
Air Force Western Test Range (AFWTR)
Object type
Payload
Rocket body
Debris
Shape & HBR
Box + 1 Pan, 17.7 m
Radar Cross Section
41.120 m², Large (>1 m²)

Expand to show TLE details & history
Last TLE update: 1 day ago

TLE from 1 day ago
0 STARLINK-38039
1 69719U 26147R   26236.34397684  .00013966  00000-0  43405-3 0  9999
2 69719  97.2857 273.1206 0000103  30.3598 329.7651 15.33449793 10074
Epoch: 2026-08-24T08:15Z
TLE epoch observation values (Epoch: 2026-08-24T08:15:19.598Z)
Latitude
-0.00002°
Longitude
176.66191°
Altitude
468.58 km
Speed
7.632 km/s
True Right ascension
18h 12m 28s
True Declination
0° 00' 00"
Sunlit
Object was in full shadow at epoch
Visualization orbit readout
Latitude
Unknown
Longitude
Unknown
Altitude
Unknown
Speed
Unknown
Apparent Right ascension
Unknown
Apparent Declination
Unknown
Sunlit
N/A
Visualization observer readout
Local Sidereal Time
01:49:10
Azimuth
Unknown
Elevation
Unknown
Doppler factor
Unknown
Orbital elements
Apogee altitude
462.542 km
Perigee altitude
462.401 km
Semi-major axis
6,840.609 km
Eccentricity
0.00001
Inclination
97.2857°
RAAN
273.1206°
Arg. of periapsis
30.3598°
True anomaly
329.76451°
Mean anomaly
329.7651°
Eccentric anomaly
329.7648°
Mean motion
3.8362 °/min
Orbital period
93.84 mins
BSTAR
0.00043405
Loading maneuver chart data...
Computing Atmospheric mass density...
Loading historical data...
Loading historical data...
Loading historical data...
Loading historical data...
Loading historical data...
Loading historical data...
Loading historical data...

Documentation

Showing up to 5 results
|